Location: Bannatyne
(13.0833°N, 59.5333°W)
Time: 02:54:53
(UTC+00:00)

N. Korean satellite - Visible Passes

Search period start: 12 December 2019 00:00
Search period end: 22 December 2019 00:00
Orbit: 455 x 506 km, 97.2° (Epoch: 10 December)

Date Brightness Start Highest point End Pass type
(mag) Time Alt. Az. Time Alt. Az. Time Alt. Az.
12 Dec 9.0 09:03:00 10° NE 09:05:49 24° E 09:08:39 10° SSE visible
13 Dec 9.8 22:05:11 10° SW 22:07:40 17° W 22:10:07 10° WNW visible
14 Dec 6.5 09:44:54 10° N 09:48:15 55° WNW 09:51:35 10° SSW visible
15 Dec 7.6 09:19:33 10° NNE 09:22:51 47° E 09:26:09 10° S visible
16 Dec 9.5 08:55:03 10° NE 08:57:25 18° E 08:59:47 10° SE visible
17 Dec 9.6 21:56:21 10° SSW 21:59:17 22° W 22:02:13 10° NW visible
18 Dec 6.3 09:36:26 10° N 09:39:51 79° W 09:43:15 10° SSW visible
19 Dec 8.3 09:11:19 10° NNE 09:14:27 33° E 09:17:33 10° SSE visible
20 Dec 9.8 08:47:20 10° ENE 08:49:00 13° E 08:50:40 10° SE visible
20 Dec 10.2 22:14:47 10° WSW 22:16:20 12° W 22:17:52 10° WNW visible
